[[{"header":{"parameterUnit":"m.s-1","parameterCategory":1,"la1":30.2992,"la2":30.254,"lo1":-89.0895,"lo2":-89.0443,"dy":0.0025,"dx":0.0025,"nx":19,"ny":19,"refTime":"2026-04-02T03:00:00:Z","depth":0,"parameterNumber":2,"parameterNumberName":"U-component_of_WINDS"},"data":[0,0,0,-4.9126,-4.913,-4.9316,-4.9316,-4.9554,-4.9556,0,0,0,0,0,0,0,0,0,0,0,-4.9072,-4.9074,-4.9126,-4.913,-4.9316,-4.9317,-4.9553,-4.9556,0,0,0,0,0,0,0,0,0,0,0,-4.9071,-4.9073,-4.9075,-4.9131,-4.9316,-4.9317,-4.9553,-4.9412,0,0,0,0,0,0,0,0,0,0,-4.9232,-4.9184,-4.9073,-4.9075,-4.9132,-4.9315,-4.9317,-4.9406,-4.9421,-4.947,0,-4.9515,0,-4.9539,-4.9572,-4.9573,0,0,0,-4.9129,-4.9171,-4.922,-4.9076,-4.9134,-4.9315,-4.9232,-4.9414,-4.9432,-4.9491,-4.9518,-4.9527,-4.9543,-4.9573,-4.9575,-4.9862,-4.9863,0,0,-4.9119,-4.9106,-4.9208,-4.9231,-4.9204,-4.9226,-4.9237,-4.9425,-4.9453,-4.9519,-4.9532,-4.9547,-4.9575,-4.9577,-4.9861,-4.9862,0,0,0,-4.909,-4.9098,-4.9143,-4.9222,-4.9255,-4.9231,-4.9245,-4.9445,-4.9461,-4.9535,-4.955,-4.9576,-4.9579,-4.9859,-4.9861,-4.9917,0,0,0,-4.9084,-4.9082,-4.9139,-4.9132,-4.9252,-4.9353,-4.9261,-4.9448,-4.947,-4.9549,-4.9576,-4.9582,-4.9858,-4.986,-4.9912,-4.9944,0,0,0,-4.9059,-4.9079,-4.9106,-4.9131,-4.9211,-4.935,-4.9377,-4.9453,-4.9479,-4.9573,-4.9582,-4.9857,-4.986,-4.9907,-4.9937,-5.0014,0,0,0,-4.9029,-4.9153,-4.9107,-4.9251,-4.9209,-4.9384,-4.9376,-4.9506,-4.9594,-4.9578,-4.9858,-4.9861,-4.9906,-4.9932,-5.0009,-5.0075,-5.0101,0,0,-4.9177,-4.917,-4.9256,-4.9221,-4.94,-4.9357,-4.9544,-4.9636,-4.9657,-4.9792,-4.98,-4.9913,-4.9936,-5.0013,-5.0261,-5.0282,0,0,0,-4.9298,-4.9359,-4.941,-4.9493,-4.9568,-4.9634,-4.9699,-4.9734,-4.9849,-4.9725,-4.9964,-4.9978,-5.0024,-5.0055,-5.0073,-5.0112,-4.9876,-4.9876,-4.9876,-4.9487,-4.9508,-4.9651,-4.9695,-4.9776,-4.9843,-4.991,-4.9967,-4.9965,-5.0021,-5.006,-5.0208,-5.0245,-5.0258,-5.0299,-5.0099,-5.0099,-5.0099,-5.0099,-4.9704,-4.9792,-4.9788,-4.9924,-4.9946,-5.0061,-5.0131,-5.0125,-5.0234,-5.018,-5.0221,-5.0158,-5.0281,-5.0317,-5.0104,-5.0103,-5.0103,-5.0102,-5.0102,-4.9827,-4.9873,-4.9914,-5.0037,-5.0129,-5.017,-5.0275,-5.0292,-5.0308,-5.0349,-5.039,-5.039,-5.0388,-5.0368,-5.0369,-5.0369,-5.037,-5.037,-5.0371,-4.9937,-4.9982,-5.0068,-5.0159,-5.0215,-5.029,-5.036,-5.0415,-5.048,-5.0484,-5.0484,-5.0474,-5.0291,-5.0242,-5.0378,-5.0377,-5.0376,-5.0375,-5.0375,-5.0143,-5.0099,-5.0233,-5.029,-5.0397,-5.0487,-5.0509,-5.0619,-5.0667,-5.0718,-5.0701,-5.0564,-5.0556,-5.0542,-5.0502,-5.0698,-5.0698,-5.0698,-5.0698,-5.0244,-5.0244,-5.0384,-5.0473,-5.0561,-5.0594,-5.0744,-5.08,-5.0851,-5.0881,-5.0857,-5.0806,-5.0791,-5.0792,-5.0773,-5.0735,-5.0986,-5.0986,-5.0987,-5.0371,-5.038,-5.0504,-5.0554,-5.0641,-5.0713,-5.0854,-5.0955,-5.1004,-5.0999,-5.0905,-5.0893,-5.0812,-5.0785,-5.0773,-5.0743,-5.0674,0,0]},{"header":{"parameterUnit":"m.s-1","parameterCategory":1,"la1":30.2992,"la2":30.254,"lo1":-89.0895,"lo2":-89.0443,"dy":0.0025,"dx":0.0025,"nx":19,"ny":19,"refTime":"2026-04-02T03:00:00:Z","depth":0,"parameterNumber":3,"parameterNumberName":"V-component_of_WINDS"},"data":[0,0,0,2.9264,2.9267,2.9439,2.944,2.965,2.9652,0,0,0,0,0,0,0,0,0,0,0,2.9207,2.9208,2.9264,2.9268,2.9439,2.944,2.965,2.9652,0,0,0,0,0,0,0,0,0,0,0,2.9206,2.9208,2.9209,2.9268,2.9439,2.944,2.9649,2.9523,0,0,0,0,0,0,0,0,0,0,2.9358,2.9299,2.9207,2.9209,2.9269,2.9439,2.944,2.9517,2.9531,2.9568,0,2.9599,0,2.9629,2.9665,2.9666,0,0,0,2.9272,2.9288,2.934,2.921,2.9271,2.9439,2.9363,2.9525,2.9541,2.9586,2.9602,2.961,2.9632,2.9667,2.9668,2.9869,2.9869,0,0,2.9263,2.9234,2.9329,2.935,2.9322,2.9358,2.9368,2.9535,2.955,2.9603,2.9616,2.9636,2.9668,2.967,2.9868,2.9869,0,0,0,2.9233,2.9227,2.9276,2.9341,2.9372,2.9362,2.9375,2.9543,2.9561,2.9618,2.9638,2.9669,2.9672,2.9867,2.9868,2.9878,0,0,0,2.9227,2.921,2.9271,2.9255,2.9369,2.946,2.9379,2.9549,2.9569,2.9637,2.9669,2.9674,2.9866,2.9868,2.9876,2.9887,0,0,0,2.9198,2.9206,2.9229,2.9254,2.9327,2.9458,2.9486,2.9554,2.9581,2.9666,2.9674,2.9866,2.9868,2.9874,2.9884,2.9934,0,0,0,2.9158,2.9233,2.9229,2.9322,2.9325,2.9462,2.9485,2.9588,2.9662,2.967,2.9867,2.9868,2.9874,2.9883,2.9931,2.997,2.9983,0,0,2.9237,2.9242,2.9299,2.93,2.9431,2.9438,2.9572,2.9665,2.9698,2.981,2.9815,2.9877,2.9884,2.9933,3.0066,3.0076,0,0,0,2.9314,2.9355,2.9396,2.9466,2.954,2.9606,2.9683,2.9718,2.9815,2.975,2.9908,2.9913,2.9943,2.9963,2.9972,3.0,2.9876,2.9876,2.9876,2.9385,2.9426,2.9524,2.9586,2.9653,2.9734,2.9793,2.9854,2.9873,2.9911,2.9944,3.002,3.0042,3.0049,3.0078,2.9967,2.9967,2.9967,2.9967,2.9506,2.9571,2.9598,2.9703,2.9746,2.9834,2.9916,2.9927,3.0017,2.9997,3.0025,3.0001,3.0059,3.0086,2.9968,2.9968,2.9968,2.9968,2.9968,2.9557,2.9596,2.9639,2.9746,2.9825,2.9885,2.9971,3.0007,3.0041,3.0069,3.0109,3.0109,3.0115,3.0086,3.0086,3.0086,3.0086,3.0087,3.0087,2.9594,2.9642,2.971,2.9798,2.985,2.9922,3.0005,3.0057,3.0123,3.0143,3.0143,3.0161,3.0056,3.003,3.0091,3.009,3.009,3.0089,3.0089,2.9702,2.9684,2.9789,2.9841,2.9949,3.0026,3.0072,3.0174,3.0222,3.0264,3.0276,3.0193,3.02,3.0193,3.0172,3.0266,3.0266,3.0266,3.0266,2.9746,2.9754,2.9871,2.9952,3.0035,3.0088,3.0207,3.0275,3.0341,3.0373,3.0365,3.034,3.0331,3.0343,3.0333,3.0314,3.0442,3.0442,3.0442,2.9816,2.9835,2.9928,2.9994,3.0082,3.0158,3.0272,3.0364,3.0436,3.045,3.04,3.0393,3.0352,3.0336,3.0349,3.0333,3.0298,0,0]}]]